Regional Weather Roundup
Issued by NWS Albany, NY

Home | Current Version | Previous Version | Text Only | Print | Product List | Glossary On
Versions: 1 2 3 4 5 6 7 8 9 10 11 12 13 14 15 16 17 18 19 20 21 22 23 24 25 26 27 28 29 30 31 32 33 34 35 36 37 38 39 40 41 42 43 44 45 46 47 48 49 50
000
ASUS41 KALY 161510
RWRALY

NEW YORK STATE HOURLY WEATHER ROUNDUP
NATIONAL WEATHER SERVICE ALBANY NY
1100 AM EDT TUE SEP 16 2014

NOTE: "FAIR" INDICATES FEW OR NO CLOUDS BELOW 12,000 FEET WITH NO
SIGNIFICANT WEATHER AND/OR NO OBSTRUCTIONS TO VISIBILITY.

NYZ032-033-038>043-046>054-057>066-NYZ062>081-161600-
EAST


CITY           SKY/WX    TMP DP  RH WIND       PRES   REMARKS
ALBANY         CLOUDY    58  53  84 S6        30.03S
GLENS FALLS    CLOUDY    57  53  86 S6        30.00F
POUGHKEEPSIE   CLOUDY    59  55  87 NW3       30.01F
NEWBURGH       CLOUDY    57  57 100 W6        30.04S
MONTGOMERY     CLOUDY    59  55  87 CALM      30.02F
WHITE PLAINS   LGT RAIN  58  56  93 CALM      30.01F FOG
ISLIP          LGT RAIN  62  59  90 NW7       30.00F
NEW YORK CITY  CLOUDY    59  56  89 NE8       30.02S
CENTRAL PARK   RAIN      59  56  89 CALM      30.05S FOG
$$

NYZ005>009-017-018-044>046-055-056-161600-
CENTRAL


CITY           SKY/WX    TMP DP  RH WIND       PRES   REMARKS
FULTON         CLOUDY    59  52  77 NW9       30.05R
SYRACUSE       CLOUDY    60  55  83 W9        30.04S
ROME           CLOUDY    56  54  93 SW7       30.05S
ELMIRA         CLOUDY    59  52  77 CALM      30.06S
BINGHAMTON     CLOUDY    56  52  86 NW8       30.05F
MONTICELLO     PTSUNNY   57  54  88 NW6       30.04F
$$

NYZ026>034-041>043-161600-
NORTH


CITY           SKY/WX    TMP DP  RH WIND       PRES   REMARKS
WATERTOWN      PTSUNNY   62  51  67 NW9       30.03S
FORT DRUM      NOT AVBL
MASSENA        CLOUDY    58  52  80 W9        30.01S
SARANAC LAKE   CLOUDY    50  49  96 VRB5      29.99S
PLATTSBURGH    CLOUDY    55  53  93 CALM      29.99S
$$

NYZ001>004-010>016-019>021-161600-
WEST


CITY           SKY/WX    TMP DP  RH WIND       PRES   REMARKS
NIAGARA FALLS  MOSUNNY   60  48  64 NW10      30.10S
BUFFALO        MOSUNNY   60  49  66 NW9       30.10S
DUNKIRK        PTSUNNY   59  50  72 NW12      30.12R
JAMESTOWN      CLOUDY    54  48  82 NW10      30.12S
WELLSVILLE     CLOUDY    55  50  83 N9        30.10S
ROCHESTER      PTSUNNY   62  50  64 W13       30.08S
PENN YAN       CLOUDY    59  53  80 W8        30.07S
$$

             KEY
       WCI = WIND CHILL INDEX
       VSB = VISIBILITY
       HX  = HEAT INDEX
$$



USA.gov is the U.S. government's official web portal to all federal, state and local government web resources and services.